Location: Bonnesvalyn
(49.1218°N, 3.3177°E)
Time: 08:53:10
(UTC+00:00)

Cosmos 1461 - Pass Details

Date: 09 February 2023
Orbit: 492 x 644 km, 65.0° (Epoch: 23 March)

Event Time Altitude Azimuth Distance (km) Brightness Sun altitude
Rises 17:45:26 0° 239° (WSW) 2,780 8.1 -8.5°
Reaches altitude 10° 17:47:43 10° 247° (WSW) 1,911 7.1 -8.9°
Maximum altitude 17:51:49 41° 318° (NW) 891 4.2 -9.5°
Drops below altitude 10° 17:56:07 10° 29° (NNE) 2,007 5.3 -10.2°
Enters shadow 17:57:24 - 34° (NE) 2,490 5.7 -10.4°
